B603L RJCC-ZYTX

Flight info

Callsign B603L
Flight time N/A
Altitude 38000
Route HWE Y12 TAPPI Z16 GNITS Z162 KAMSA L512 ANDOL/N0459F400 L512 TENAS B467 KAE G597 AGAVO/K0854S1040 G597 DONVO A326 SANKO/K0859S1010 W107 CHI A588 TOSID
Aircraft CL60/M-SBDE1E2E3FGHIJ1J4J5J7M3RWXYZ/LB1V1D1

Departure

Time 2026-05-05 07:10
Airport New Chitose Airport (RJCC)

Arrival

Time N/A
Airport Shenyang Taoxian International Airport (ZYTX)
Time Latitude Longitude Altitude Speed Heading
2026-05-05 06:13 42.79475 141.67413 70 ft 0 kts 83°
2026-05-05 07:06 42.79475 141.67415 70 ft 1 kts 72°
2026-05-05 07:06 42.79488 141.67404 70 ft 6 kts 274°
2026-05-05 07:07 42.79466 141.67316 69 ft 13 kts 218°
2026-05-05 07:07 42.79357 141.67313 69 ft 17 kts 171°
2026-05-05 07:07 42.79239 141.67352 71 ft 12 kts 126°
2026-05-05 07:07 42.79235 141.67479 72 ft 15 kts 84°
2026-05-05 07:08 42.79251 141.67647 74 ft 19 kts 84°
2026-05-05 07:08 42.79266 141.67851 76 ft 23 kts 84°
2026-05-05 07:08 42.79245 141.68086 78 ft 26 kts 105°
2026-05-05 07:08 42.79162 141.68308 79 ft 26 kts 127°
2026-05-05 07:09 42.79033 141.68474 82 ft 24 kts 146°
2026-05-05 07:09 42.78936 141.68578 81 ft 15 kts 103°
2026-05-05 07:09 42.78930 141.68707 79 ft 14 kts 137°
2026-05-05 07:09 42.78842 141.68797 77 ft 17 kts 148°
2026-05-05 07:10 42.78731 141.68829 76 ft 16 kts 172°
2026-05-05 07:10 42.78410 141.68887 75 ft 90 kts 173°
2026-05-05 07:10 42.77528 141.69040 224 ft 152 kts 172°
2026-05-05 07:10 42.76419 141.69203 932 ft 171 kts 174°
2026-05-05 07:11 42.75202 141.69176 1801 ft 183 kts 181°
2026-05-05 07:11 42.73877 141.69047 2498 ft 204 kts 182°
2026-05-05 07:11 42.72453 141.68900 3065 ft 202 kts 182°
2026-05-05 07:11 42.71072 141.68767 3565 ft 200 kts 182°
2026-05-05 07:12 42.69719 141.68343 4040 ft 204 kts 206°
2026-05-05 07:12 42.68459 141.67226 4573 ft 231 kts 214°
2026-05-05 07:12 42.67083 141.65924 5332 ft 251 kts 216°
2026-05-05 07:12 42.65646 141.64571 6202 ft 257 kts 217°
2026-05-05 07:13 42.64188 141.63199 7109 ft 258 kts 219°
2026-05-05 07:13 42.62723 141.61822 8046 ft 259 kts 220°
2026-05-05 07:13 42.61248 141.60437 8984 ft 261 kts 220°
2026-05-05 07:13 42.59757 141.59042 9929 ft 264 kts 220°
2026-05-05 07:14 42.58251 141.57631 10874 ft 267 kts 221°
2026-05-05 07:14 42.56732 141.56207 11822 ft 271 kts 221°
2026-05-05 07:14 42.55171 141.54747 12781 ft 275 kts 222°
2026-05-05 07:14 42.53620 141.53299 13698 ft 279 kts 223°
2026-05-05 07:15 42.52018 141.51802 14595 ft 282 kts 223°
2026-05-05 07:15 42.50406 141.50296 15477 ft 285 kts 222°
2026-05-05 07:15 42.48792 141.48791 16332 ft 287 kts 220°
2026-05-05 07:15 42.47130 141.47244 17183 ft 290 kts 217°
2026-05-05 07:16 42.45474 141.45705 18006 ft 292 kts 215°
2026-05-05 07:16 42.43812 141.44162 18789 ft 294 kts 217°
2026-05-05 07:16 42.42132 141.42603 19618 ft 294 kts 219°
2026-05-05 07:16 42.40464 141.41057 20529 ft 293 kts 222°
2026-05-05 07:17 42.38804 141.39519 21596 ft 291 kts 224°
2026-05-05 07:17 42.37157 141.37996 22548 ft 289 kts 225°
2026-05-05 07:17 42.35500 141.36464 23372 ft 287 kts 225°
2026-05-05 07:17 42.33886 141.34970 24147 ft 286 kts 224°
2026-05-05 07:18 42.32231 141.33440 24924 ft 286 kts 224°
2026-05-05 07:18 42.30559 141.31879 25065 ft 308 kts 224°
2026-05-05 07:18 42.28725 141.30160 25103 ft 331 kts 223°
2026-05-05 07:18 42.26777 141.28349 25271 ft 349 kts 223°
2026-05-05 07:19 42.24751 141.26477 25652 ft 360 kts 223°
2026-05-05 07:19 42.22675 141.24564 26197 ft 366 kts 222°
2026-05-05 07:19 42.20575 141.22633 26805 ft 369 kts 222°
2026-05-05 07:19 42.18430 141.20662 27327 ft 374 kts 222°
2026-05-05 07:20 42.16288 141.18695 27861 ft 378 kts 222°
2026-05-05 07:20 42.14105 141.16690 28325 ft 383 kts 222°
2026-05-05 07:20 42.11899 141.14667 28801 ft 387 kts 221°
2026-05-05 07:20 42.09658 141.12613 29259 ft 391 kts 222°
2026-05-05 07:21 42.07422 141.10567 29779 ft 394 kts 221°
2026-05-05 07:21 42.05146 141.08485 30178 ft 398 kts 222°
2026-05-05 07:21 42.02845 141.06378 30528 ft 404 kts 222°
2026-05-05 07:21 42.00514 141.04250 30943 ft 407 kts 221°
2026-05-05 07:22 41.98174 141.02115 31365 ft 408 kts 221°
2026-05-05 07:22 41.95843 140.99992 31786 ft 408 kts 221°
2026-05-05 07:22 41.93470 140.97832 32162 ft 410 kts 221°
2026-05-05 07:22 41.91109 140.95683 32469 ft 413 kts 221°
2026-05-05 07:23 41.88712 140.93503 32835 ft 414 kts 221°
2026-05-05 07:23 41.86328 140.91339 33155 ft 415 kts 221°
2026-05-05 07:23 41.83953 140.89183 33459 ft 416 kts 221°
2026-05-05 07:23 41.81556 140.87009 33710 ft 418 kts 221°
2026-05-05 07:24 41.79163 140.84842 34042 ft 418 kts 221°
2026-05-05 07:24 41.76799 140.82643 34434 ft 413 kts 224°
2026-05-05 07:24 41.74551 140.80295 34785 ft 409 kts 225°
2026-05-05 07:24 41.72302 140.77916 35045 ft 407 kts 225°
2026-05-05 07:25 41.70101 140.75597 35332 ft 402 kts 225°
2026-05-05 07:25 41.67921 140.73299 35568 ft 400 kts 225°
2026-05-05 07:25 41.65753 140.71017 35804 ft 397 kts 225°
2026-05-05 07:25 41.63604 140.68758 36030 ft 394 kts 225°
2026-05-05 07:26 41.61461 140.66505 36267 ft 394 kts 225°
2026-05-05 07:26 41.59303 140.64239 36552 ft 392 kts 225°
2026-05-05 07:26 41.57194 140.62032 36899 ft 389 kts 225°
2026-05-05 07:26 41.55077 140.59816 37175 ft 387 kts 225°
2026-05-05 07:27 41.52933 140.57571 37353 ft 387 kts 225°
2026-05-05 07:27 41.50836 140.55374 37547 ft 387 kts 225°
2026-05-05 07:27 41.48724 140.53166 37761 ft 386 kts 225°
2026-05-05 07:27 41.46602 140.50952 37959 ft 385 kts 225°
2026-05-05 07:28 41.44494 140.48747 38021 ft 388 kts 225°
2026-05-05 07:28 41.40219 140.44289 38029 ft 397 kts 225°
2026-05-05 07:29 41.35834 140.39716 38031 ft 405 kts 225°
2026-05-05 07:29 41.31338 140.35046 38033 ft 413 kts 224°
2026-05-05 07:30 41.26802 140.30337 38044 ft 420 kts 224°
2026-05-05 07:30 41.19797 140.23094 38026 ft 430 kts 224°
2026-05-05 07:31 41.15067 140.18213 38045 ft 431 kts 224°
2026-05-05 07:31 41.10435 140.13254 38048 ft 429 kts 226°
2026-05-05 07:32 41.05832 140.08214 38036 ft 428 kts 225°
2026-05-05 07:32 41.01265 140.03224 38043 ft 428 kts 225°
2026-05-05 07:33 40.96677 139.98218 38058 ft 428 kts 225°
2026-05-05 07:33 40.92078 139.93199 38057 ft 428 kts 225°
2026-05-05 07:34 40.87494 139.88214 38037 ft 429 kts 225°
2026-05-05 07:34 40.82898 139.83225 38074 ft 428 kts 225°
2026-05-05 07:35 40.78311 139.78249 38069 ft 428 kts 225°
2026-05-05 07:35 40.73729 139.73291 38057 ft 427 kts 226°
2026-05-05 07:36 40.69171 139.68368 38071 ft 425 kts 226°
2026-05-05 07:36 40.64597 139.63435 38064 ft 426 kts 225°
2026-05-05 07:37 40.60012 139.58502 38080 ft 425 kts 225°
2026-05-05 07:37 40.55438 139.53589 38078 ft 425 kts 225°
2026-05-05 07:38 40.50866 139.48688 38071 ft 424 kts 225°